Main page
METAR-TAF:

METAR-TAF

Airports :

Defence School of Transport

Leconfield, England

latitude: 53-52-37N, longitude: 0-26-15W, elevation: 7 m

Current weather observation

The report was made 1 hour and 10 minutes ago, at 18:50 UTC
Wind 5 kt from the East
Temperature 15°C
Humidity 67%
Pressure 1025 hPa
Visibility 10 km or more

METAR: EGXV 231850Z AUTO 08005KT 9999 NCD 15/09 Q1025

Time: 21:00 (20:00 UTC)


TAF: missing

Weather observations and forecasts of more than 4000 airports (METAR and TAF reports).

The available stations are represented by yellow and red dots on the map.

Hover mouse over dot to see the name of the station.

Then click to see weather observations and forecasts.

To change the map : click on the green buttons with a black cross to zoom in, on the green button with a dash to zoom out, or on the green arrows for adjacent maps.


METAR-TAF: